Location: Island Grove Observatory.
(44.2333°N, 79.4500°W)
Time: 16:25:42
(UTC-05:00)

Envisat - Visible Passes

Search period start: 01 December 2021 00:00
Search period end: 11 December 2021 00:00
Orbit: 764 x 766 km, 98.2° (Epoch: 01 December)

Date Brightness Start Highest point End Pass type
(mag) Time Alt. Az. Time Alt. Az. Time Alt. Az.
01 Dec 5.6 04:08:27 10° NE 04:11:46 17° E 04:15:03 10° SE visible
01 Dec 2.9 05:46:11 10° N 05:51:12 61° WNW 05:56:11 10° SSW visible
02 Dec 3.4 05:09:18 10° NNE 05:14:21 63° E 05:19:23 10° S visible
02 Dec 4.3 06:49:27 10° NNW 06:52:52 18° WNW 06:56:17 10° WSW visible
02 Dec 6.4 18:09:08 10° W 18:10:02 10° W 18:10:57 10° WNW visible
03 Dec 4.8 04:32:54 10° NE 04:37:19 29° E 04:41:42 10° SSE visible
03 Dec 3.5 06:11:44 10° N 06:16:22 36° WNW 06:20:59 10° SW visible
03 Dec 5.6 17:28:42 10° SW 17:32:44 24° W 17:36:48 10° NW visible
04 Dec 5.9 03:57:37 10° ENE 04:00:04 13° E 04:02:31 10° ESE visible
04 Dec 2.8 05:34:34 10° N 05:39:40 77° WNW 05:44:44 10° SSW visible
05 Dec 3.8 04:57:49 10° NNE 05:02:46 49° E 05:07:40 10° S visible
05 Dec 4.1 06:37:33 10° NNW 06:41:26 23° WNW 06:45:20 10° WSW visible
05 Dec 6.1 17:55:48 10° WSW 17:58:19 14° W 18:00:51 10° WNW visible
06 Dec 5.2 04:21:38 10° NE 04:25:40 23° E 04:29:40 10° SE visible
06 Dec 3.2 06:00:03 10° N 06:04:53 45° WNW 06:09:42 10° SW visible
06 Dec 5.2 17:16:40 10° SSW 17:21:05 29° W 17:25:31 10° NW visible
07 Dec 6.1 03:47:41 10° ENE 03:48:21 10° E 03:49:01 10° E visible
07 Dec 2.9 05:23:00 10° NNE 05:28:07 85° ESE 05:33:11 10° SSW visible
07 Dec 4.5 07:03:51 10° NNW 07:06:25 14° WNW 07:09:00 10° W visible
08 Dec 4.3 04:46:24 10° NNE 04:51:09 39° E 04:55:53 10° SSE visible
08 Dec 3.8 06:25:44 10° N 06:30:00 28° WNW 06:34:15 10° WSW visible
08 Dec 5.9 17:43:17 10° SW 17:46:38 17° W 17:49:59 10° NW visible
09 Dec 5.5 04:10:29 10° NE 04:13:59 18° E 04:17:28 10° SE visible
09 Dec 3.0 05:48:23 10° N 05:53:22 57° WNW 05:58:20 10° SSW visible
09 Dec 4.8 17:04:46 10° SSW 17:09:27 37° W 17:14:09 10° NNW visible
10 Dec 3.3 05:11:28 10° NNE 05:16:32 68° E 05:21:35 10° S visible
10 Dec 4.3 06:51:45 10° NNW 06:55:00 17° WNW 06:58:16 10° W visible
